This is the latest recevied weather packets stored in our database for station/object KT2UU-13. If no packets are shown the sender has not sent any weather packets the latest 10 day(s).
| Time | Temp. | Humidity | Pressure | Rain* | Wind** | Luminosity | Snow |
|---|---|---|---|---|---|---|---|
| 1777759532 | 19.44° C | 34% | 1015.3 hPa | 0 mm | - | - | - |
| 1777759229 | 19.44° C | 36% | 1015.3 hPa | 0 mm | - | - | - |
| 1777758926 | 18.89° C | 38% | 1015.3 hPa | 0 mm | - | - | - |
| 1777758623 | 18.89° C | 40% | 1015.2 hPa | 0 mm | - | - | - |
| 1777758320 | 18.89° C | 36% | 1015.3 hPa | 0 mm | - | - | - |
| 1777758017 | 18.33° C | 37% | 1015.2 hPa | 0 mm | - | - | - |
| 1777757714 | 19.44° C | 37% | 1015.2 hPa | 0 mm | - | - | - |
| 1777757412 | 19.44° C | 38% | 1015.2 hPa | 0 mm | - | - | - |
| 1777757110 | 18.89° C | 36% | 1015.2 hPa | 0 mm | - | - | - |
| 1777756807 | 18.89° C | 38% | 1015.1 hPa | 0 mm | - | - | - |
| 1777756503 | 18.89° C | 36% | 1015.1 hPa | 0 mm | - | - | - |
| 1777756201 | 18.89° C | 35% | 1014.9 hPa | 0 mm | - | - | - |
| 1777755897 | 19.44° C | 37% | 1014.7 hPa | 0 mm | - | - | - |
| 1777755594 | 18.89° C | 35% | 1015.1 hPa | 0 mm | - | - | - |
| 1777755290 | 19.44° C | 35% | 1014.9 hPa | 0 mm | - | - | - |
| 1777754988 | 20° C | 38% | 1014.7 hPa | 0 mm | - | - | - |
| 1777754684 | 20° C | 38% | 1014.9 hPa | 0 mm | - | - | - |
| 1777754383 | 19.44° C | 37% | 1014.8 hPa | 0 mm | - | - | - |
| 1777754080 | 19.44° C | 36% | 1015.2 hPa | 0 mm | - | - | - |
| 1777753776 | 19.44° C | 37% | 1015 hPa | 0 mm | - | - | - |
| 1777753473 | 18.89° C | 38% | 1015.1 hPa | 0 mm | - | - | - |
| 1777753171 | 18.89° C | 37% | 1015.3 hPa | 0 mm | - | - | - |
| 1777752867 | 18.89° C | 37% | 1015 hPa | 0 mm | - | - | - |
| 1777752564 | 18.89° C | 37% | 1014.9 hPa | 0 mm | - | - | - |
| 1777752259 | 18.89° C | 38% | 1015 hPa | 0 mm | - | - | - |
* Rain latest hour (hover to see other rain measurements)
** Current wind speed in m/s (hover to see current wind gust speed)